Mazatlan Airport, Mexico

9:25 PM MST on March 26, 2017 (GMT -0700)
Gen Rafael Buelna International

Weather History for MMMZ - May, 2013

Change the Weather History Date:

Saturday, May 4, 2013

  Actual Average Record
Temperature  
Mean Temperature 70 °F -  
Max Temperature 82 °F 84 °F 93 °F (1997)
Min Temperature 57 °F 58 °F 53 °F (2008)
Cooling Degree Days 4    
Growing Degree Days 20 (Base 50)    
Moisture  
Dew Point 55 °F    
Average Humidity 61    
Maximum Humidity 90    
Minimum Humidity 30    
Precipitation  
Precipitation 0.00 in - - ()
Sea Level Pressure  
Sea Level Pressure 29.90 in    
Wind  
Wind Speed 7 mph ()    
Max Wind Speed 14 mph    
Max Gust Speed -    
Visibility 11.6 miles    
Events Fog    
Averages and records for this station are not official NWS values.
T = Trace of Precipitation, MM = Missing Value Source: Averaged Metar Reports

Daily Weather History Graph

Daily Weather History Graph

Search for Another Location

Airport or City:

Trip Planner

Search our weather history database for the weather conditions in past years. The results will help you decide how hot, cold, wet, or windy it might be!

Date:

Astronomy

May. 04, 2013 Rise Set
Actual Time 6:29 AM MDT 7:34 PM MDT
Civil Twilight 6:05 AM MDT 7:58 PM MDT
Nautical Twilight 5:37 AM MDT 8:26 PM MDT
Astronomical Twilight 5:08 AM MDT 8:55 PM MDT
Moon 2:54 AM MDT (5/4) 3:06 PM MDT (5/4)
Length of Visible Light 13h 52m
Length of Day
13h 04m
Waning Crescent, 26% of the Moon is Illuminated
May 4
Waning Crescent
May 9
New
May 17
First Quarter
May 24
Full
May 31
Last Quarter

Hourly Weather History & Observations

Time (MDT) Temp. Heat Index Dew Point Humidity Pressure Visibility Wind Dir Wind Speed Gust Speed Precip Events Conditions
12:43 AM 62.6 °F - 53.6 °F 72% 29.90 in 10.0 mi ENE 8.1 mph - N/A   Clear
1:42 AM 60.8 °F - 53.6 °F 77% 29.89 in 8.0 mi ENE 6.9 mph - N/A   Clear
2:46 AM 60.8 °F - 51.8 °F 72% 29.88 in 8.0 mi NW 5.8 mph - N/A   Partly Cloudy
3:42 AM 59.0 °F - 51.8 °F 77% 29.88 in 8.0 mi North 8.1 mph - N/A   Clear
4:41 AM 57.2 °F - 51.8 °F 82% 29.88 in 8.0 mi North 10.4 mph - N/A   Clear
5:45 AM 57.2 °F - 51.8 °F 82% 29.87 in 10.0 mi North 9.2 mph - N/A   Clear
6:00 AM 66 °F - 64 °F 90% 29.89 in - North 2.2 mph - -  
6:42 AM 57.2 °F - 51.8 °F 82% 29.89 in 12.0 mi NNE 9.2 mph - N/A   Clear
7:42 AM 62.6 °F - 53.6 °F 72% 29.91 in 10.0 mi North 5.8 mph - N/A Fog Clear
8:48 AM 71.6 °F - 55.4 °F 57% 29.92 in 12.0 mi ESE 6.9 mph - N/A   Clear
9:40 AM 75.2 °F - 53.6 °F 47% 29.93 in 12.0 mi SSE 5.8 mph - N/A   Clear
10:42 AM 80.6 °F - 51.8 °F 37% 29.92 in 14.0 mi SSW 8.1 mph - N/A   Clear
11:44 AM 82.4 °F - 48.2 °F 30% 29.92 in 15.0 mi SW 13.8 mph - N/A   Clear
12:47 PM 80.6 °F - 51.8 °F 37% 29.91 in 15.0 mi SW 12.7 mph - N/A   Clear
1:41 PM 82.4 °F 81.4 °F 53.6 °F 37% 29.89 in 15.0 mi SW 10.4 mph - N/A   Clear
2:41 PM 82.4 °F 82.0 °F 57.2 °F 42% 29.88 in 15.0 mi SW 11.5 mph - N/A   Clear
3:43 PM 80.6 °F 80.8 °F 57.2 °F 45% 29.86 in 15.0 mi SW 11.5 mph - N/A   Clear
4:45 PM 80.6 °F 80.8 °F 57.2 °F 45% 29.85 in 15.0 mi SW 11.5 mph - N/A   Clear
5:43 PM 78.8 °F - 55.4 °F 44% 29.85 in 15.0 mi SW 10.4 mph - N/A   Clear
6:43 PM 75.2 °F - 57.2 °F 53% 29.87 in 12.0 mi SW 10.4 mph - N/A   Clear
7:46 PM 71.6 °F - 57.2 °F 60% 29.89 in 10.0 mi SW 8.1 mph - N/A   Clear
8:44 PM 69.8 °F - 59.0 °F 68% 29.91 in 10.0 mi West 6.9 mph - N/A   Partly Cloudy
9:50 PM 66.2 °F - 55.4 °F 68% 29.94 in 10.0 mi Calm Calm - N/A   Clear
10:47 PM 64.4 °F - 57.2 °F 77% 29.96 in 10.0 mi SSW 6.9 mph - N/A   Clear
11:43 PM 64.4 °F - 55.4 °F 73% 29.96 in 10.0 mi East 6.9 mph - N/A   Clear